Regional Weather Roundup
Issued by NWS

Home | Current Version | Previous Version | Text Only | Print | Product List | Glossary On
Versions: 1 2 3 4 5 6 7 8 9 10 11 12 13 14 15 16 17 18 19 20 21 22 23 24 25 26 27 28 29 30 31 32 33 34 35 36 37 38 39 40 41 42 43 44 45 46 47 48 49 50
000
ASUS43 KDTX 031710
RWRMI
MICHIGAN HOURLY REGIONAL WEATHER ROUNDUP
NATIONAL WEATHER SERVICE DETROIT/PONTIAC MI
100 PM EDT FRI JUL 03 2015

NOTE: "FAIR" INDICATES FEW OR NO CLOUDS BELOW 12,000 FEET WITH NO
SIGNIFICANT WEATHER AND/OR OBSTRUCTION TO VISIBILITY.

MIZ047>049-052>055-059>063-066>070-074>076-081>083-031800-
SOUTHEAST LOWER MICHIGAN

CITY           SKY/WX    TMP DP  RH WIND       PRES   REMARKS
ADRIAN         MOSUNNY   71  53  52 SE6       29.99S
ALMA           PTSUNNY   70  44  38 CALM      30.01S
ANN ARBOR      MOSUNNY   74  54  49 CALM      29.98F
BAD AXE        MOSUNNY   69  41  35 CALM      30.00F
CARO           PTSUNNY   69  47  46 CALM      29.99F
DETROIT CITY   MOSUNNY   70  53  54 SE7       29.98F
DETROIT        PTSUNNY   71  53  52 CALM      29.98F
FLINT          PTSUNNY   70  42  36 CALM      29.99F
GROSSE ILE     PTSUNNY   70  57  64 S5        29.97S
HILLSDALE      MOSUNNY   70  50  50 CALM      29.99S
HOWELL         MOSUNNY   70  50  49 CALM      29.99S

CITY           SKY/WX    TMP DP  RH WIND       PRES   REMARKS
JACKSON        MOSUNNY   72  54  53 VRB6      29.99S
LAMBERTVILLE   PTSUNNY   71  51  49 NE6       29.99R
LANSING        PTSUNNY   69  50  50 E5        30.00S
LAPEER         FAIR      69  45  42 CALM      30.00S
MASON          MOSUNNY   69  53  56 CALM      29.99S
MONROE         PTSUNNY   69  52  55 SE5       29.98R
MT. CLEMENS    PTSUNNY   69  56  64 E7        29.97F
PONTIAC        CLOUDY    69  46  43 CALM      29.98F
PORT HOPE        N/A     64  51  62 E12       29.99F
PORT HURON     PTSUNNY   70  55  60 S3        29.99F
TRI CITIES     PTSUNNY   71  42  35 CALM      30.00F
MIDLAND        FAIR      70  43  37 E5        30.00S
TROY           MOSUNNY   71  50  47 SE5       29.99F
SAGINAW HB     PTSUNNY   68  37  32 CALM      29.99F
$$
MIZ043>046-050>051-056>058-064>065-071>073-077>080-031800-
SOUTHWEST LOWER MICHIGAN

CITY           SKY/WX    TMP DP  RH WIND       PRES   REMARKS
BATTLE CREEK   PTSUNNY   73  54  51 VRB3      29.99S
BENTON HARBOR  PTSUNNY   71  57  61 VRB6      29.98S
BIG RAPIDS     MOSUNNY   71  42  34 CALM      29.99F
COLDWATER      PTSUNNY   71  51  50 SE5       29.98S
FREMONT        FAIR      72  42  33 CALM      29.99F
HOLLAND        PTSUNNY   74  50  42 CALM      29.99S
GRAND RAPIDS   PTSUNNY   72  52  49 N3        29.99S
IONIA          FAIR      70  50  50 CALM      29.99S
KALAMAZOO      PTSUNNY   71  51  49 VRB3      29.99S
LUDINGTON      SUNNY     71  51  49 W6        30.00S
MARSHALL       MOSUNNY   71  52  49 CALM      29.98S
MOUNT PLEASANT PTSUNNY   69  44  41 CALM      30.00S
MUSKEGON       MOSUNNY   73  54  51 NW9       29.99S
SOUTH HAVEN    PTSUNNY   71  53  53 SE5       29.98F
$$
MIZ016>042-031800-
NORTHERN LOWER MICHIGAN

CITY           SKY/WX    TMP DP  RH WIND       PRES   REMARKS
ALPENA         SUNNY     76  45  33 SW9       29.97F
BEAVER ISLAND  MOSUNNY   66  54  64 SW12G18   29.95R
BELLAIRE       SUNNY     73  49  43 SW5       29.97S
CADILLAC       SUNNY     72  51  47 S9        29.98F
CHARLEVOIX     MOSUNNY   71  51  48 SW13      29.99S
FRANKFORT      SUNNY     69  44  40 W8        29.99S
GAYLORD        SUNNY     71  50  47 SW12      29.98F
GRAYLING       SUNNY     71  50  47 SW3       29.99F
HARBOR SPRINGS SUNNY     70  52  52 SW6       29.96S
HOUGHTON LAKE  SUNNY     70  45  40 SW5       30.00F
MANISTEE       SUNNY     70  45  40 W9        29.99F
OSCODA         SUNNY     73  43  34 SW6       29.98F
PELLSTON       MOSUNNY   71  47  42 SW13      29.95F
ROGERS CITY    SUNNY     74  53  47 S9        29.95F
TRAVERSE CITY  CLOUDY    75  52  44 W12       29.95F
$$
MIZ007>008-015-031800-
EASTERN UPPER MICHIGAN

CITY           SKY/WX    TMP DP  RH WIND       PRES   REMARKS
KINROSS        MOSUNNY   68  55  64 SW8       29.91F
MACKINAC ISLAN MOSUNNY   64  52  66 SW12G20   29.93F
NEWBERRY       MOSUNNY   72  58  62 SW10G18   29.89F
S. S. MARIE    PTSUNNY   70  56  61 S13       29.89F
MUNISING         N/A     73  56  54 SW9G21    29.86F
$$
MIZ004>006-011>014-085-031800-
CENTRAL UPPER MICHIGAN

CITY           SKY/WX    TMP DP  RH WIND       PRES   REMARKS
MANISTIQUE     MOSUNNY   65  56  72 S8        29.91F
ESCANABA       SUNNY     73  54  49 SW13      29.90F
MENOMINEE      SUNNY     70  54  56 SW9G16    29.94F
SAWYER-GWINN   MOSUNNY   70  55  60 SW17G23   29.88F
$$
MIZ001>003-009>011-084-031800-
WESTERN UPPER MICHIGAN

CITY           SKY/WX    TMP DP  RH WIND       PRES   REMARKS
IRON MOUNTAIN  PTSUNNY   72  56  57 W9        29.91F
HOUGHTON       MOSUNNY   71  55  56 W21G31    29.83F
COPPER HARBOR    N/A     71  56  58 NW12G26   29.80F
IRONWOOD       PTSUNNY   70  55  60 SW14      29.86F
$$

ABBREVIATIONS USED IN REMARKS
   TC - TEMPERATURE IN CELSIUS
  WCI - WIND CHILL INDEX
   HX - HEAT INDEX
  VSB - VISIBILITY



USA.gov is the U.S. government's official web portal to all federal, state and local government web resources and services.